F4DYW-13 Weather Reports


Display with metric or nautical units.
time (UTC)temp
F
wind
direction
speed
MPH
gust
MPH
rain 1hr
in
rain 24hr
in
rain mn
in
humidity
%
barometer
mb
20260507062221 63 0 0.0 0.0 0.00 0.00 0.00 65 1016.3
20260507054750 63 0 0.0 0.0 0.00 0.00 0.00 65 1016.2
20260507040422 63 0 0.0 0.0 0.00 0.00 0.00 66 1015.6
20260507034701 63 0 0.0 0.0 0.00 0.00 0.00 66 1015.5
20260507031230 63 0 0.0 0.0 0.00 0.00 0.00 67 1015.4
20260507025514 63 0 0.0 0.0 0.00 0.00 0.00 67 1015.5
20260507020328 63 0 0.0 0.0 0.00 0.00 0.00 67 1015.6
20260507012900 63 0 0.0 0.0 0.00 0.00 0.00 67 1015.3
20260507011141 63 0 0.0 0.0 0.00 0.00 0.00 67 1015.4
20260507005428 63 0 0.0 0.0 0.00 0.00 0.00 67 1015.4
20260507003709 63 0 0.0 0.0 0.00 0.00 0.00 67 1015.5
20260507001953 63 0 0.0 0.0 0.00 0.00 0.00 67 1015.5
20260507000238 64 0 0.0 0.0 0.00 0.00 0.00 67 1015.4
20260506234522 63 0 0.0 0.0 0.00 0.00 0.00 67 1015.5
20260506232807 63 0 0.0 0.0 0.00 0.00 0.00 67 1015.5
20260506214432 64 0 0.0 0.0 0.00 0.00 0.00 66 1015.2
20260506212717 64 0 0.0 0.0 0.00 0.00 0.00 66 1015.0
20260506211002 64 0 0.0 0.0 0.00 0.00 0.00 66 1014.8
20260506205246 64 0 0.0 0.0 0.00 0.00 0.00 66 1014.7
20260506203535 64 0 0.0 0.0 0.00 0.00 0.00 66 1014.6
20260506201814 64 0 0.0 0.0 0.00 0.00 0.00 66 1014.4
20260506192628 64 0 0.0 0.0 0.00 0.00 0.00 66 1013.8
20260506181722 64 0 0.0 0.0 0.00 0.00 0.00 66 1012.5
20260506180007 65 0 0.0 0.0 0.00 0.00 0.00 65 1012.1
20260506170819 65 0 0.0 0.0 0.00 0.00 0.00 64 1011.5
20260506154204 65 0 0.0 0.0 0.00 0.00 0.00 61 1011.5
20260506152445 65 0 0.0 0.0 0.00 0.00 0.00 61 1011.4
20260506150730 65 0 0.0 0.0 0.00 0.00 0.00 61 1011.5
20260506145014 65 0 0.0 0.0 0.00 0.00 0.00 61 1011.6
20260506143258 65 0 0.0 0.0 0.00 0.00 0.00 60 1011.6
20260506141543 65 0 0.0 0.0 0.00 0.00 0.00 60 1011.5
20260506134114 65 0 0.0 0.0 0.00 0.00 0.00 60 1011.9
20260506132356 65 0 0.0 0.0 0.00 0.00 0.00 60 1011.9
20260506130641 65 0 0.0 0.0 0.00 0.00 0.00 59 1011.9
20260506123211 65 0 0.0 0.0 0.00 0.00 0.00 59 1012.0
20260506121454 65 0 0.0 0.0 0.00 0.00 0.00 60 1012.2
20260506115737 65 0 0.0 0.0 0.00 0.00 0.00 60 1012.2
20260506110551 64 0 0.0 0.0 0.00 0.00 0.00 62 1012.7
20260506104835 64 0 0.0 0.0 0.00 0.00 0.00 62 1013.0
20260506101404 64 0 0.0 0.0 0.00 0.00 0.00 62 1013.0
20260506095650 64 0 0.0 0.0 0.00 0.00 0.00 62 1013.0
20260506093934 64 0 0.0 0.0 0.00 0.00 0.00 62 1013.0
20260506092217 64 0 0.0 0.0 0.00 0.00 0.00 63 1013.0
20260506084746 64 0 0.0 0.0 0.00 0.00 0.00 65 1012.8
20260506083030 64 0 0.0 0.0 0.00 0.00 0.00 66 1012.6
20260506072127 63 0 0.0 0.0 0.00 0.00 0.00 70 1012.5